sat.trackr.live / text

‹ back to catalog

STARLINK-34779

NORAD 65058 · 2025-165C

PAYLOAD ACTIVE UNKNOWN

§ Identity

Operator
Country
US
Launch date
2025-07-31
Launch site
AFWTR
Launch vehicle
Mass (kg)
RCS (m²)

Purposes: comms

External: N2YO · Heavens-Above · Gunter

§ Orbital elements

Epoch: 2026-05-25T04:52:19.009056Z

Period
95.64 min
Inclination
97.4454°
Eccentricity
0.0002892
Mean motion
15.05659507 rev/d
Perigee alt
547.5 km
Apogee alt
551.5 km
Semi-major
6,927.6 km
B*
2.8571e-4
RAAN
222.2796°
Arg perigee
140.0998°
Mean anomaly
220.0442°
Rev number
4,630

§ Raw data

STARLINK-347791 65058U 25165C   26145.20299779  .00004067  00000+0  28571-3 0  99982 65058  97.4454 222.2796 0002892 140.0998 220.0442 15.05659507 46301

JSON: /api/v1/satellites/65058 · /tle

For live sub-satellite position, see the globe view (requires WebGL).

§ Visibility from observer

Set your observer location to see the next 7 days of passes ≥ 10°. The values pass through the URL so the page stays shareable.

No JS? Fill the form by hand. The geolocation button needs JavaScript.